Lemur-2-Dembitz

operational
NORAD ID: 42842 Int'l Des: 2017-042 Owner: SPIRE Country: US Constellation: spire
LEOCIRCULARRETROGRADESSO

About Lemur-2-Dembitz

Description loading...

Live Position

Loading 3D Globe...

Upcoming Passes

Altitude History

Altitude vs Time

uPlot chart will show altitude changes over time

Two-Line Element Set

1 42842U 17042T 26063.49406833 .00030009 00000-0 11408-2 0 9996
2 42842 97.3795 246.0004 0007257 34.4491 325.7217 15.26712829472355
Epoch: Mar 4, 2026 • Age: 22 hours

Current Status

Altitude 492.8 km
Velocity 7.63 km/s
Sub-Earth Point 65.65°N, 103.42°E
Launch Date Jul 14, 2017
Age 8.6 years
Type other

Technical Details

Classification Payload
Mass 4.00 kg
Dry Mass 4.00 kg
Total Mass 4.00 kg
Length 0.30 m
Diameter 0.10 m
Span 0.30 m
Shape Box
Manufacturer SPIREG
Bus Type Cubesat 3U
Phase Status In Orbit
Owner/State SPIRE/US

Large Constellations

Loading constellations...